This demonstration page uses our WeatherBlox Daily Observations layout. Learn more.

Left ArrowRight Arrow

Hourly Observations for January 7, 2016

Temp ( °F °C ) Dew Point ( °F °C ) Humidity (%) Winds ( mph kmh ) Pressure ( in mb ) Visibility ( mi km ) Precip ( " mm )
12:53 am 00:53 Mostly Cloudy with Fog 33 0.6 32 0 96 96 E 3 6 29.88 1012 0 0 0.00 0.00
1:53 am 01:53 Mostly Cloudy with Fog 33 0.6 32 0 96 96 ENE 3 6 29.87 1011 0 0 0.00 0.00
2:53 am 02:53 Mostly Cloudy with Fog 32 0 31 -0.6 96 96 ENE 5 7 29.87 1011 0 0 0.00 0.00
3:53 am 03:53 Mostly Cloudy with Fog 32 0 31 -0.6 96 96 ENE 6 9 29.86 1011 0 0 0.00 0.00
4:53 am 04:53 Mostly Cloudy with Fog 32 0 31 -0.6 96 96 ENE 6 9 29.86 1011 0 0 0.00 0.00
5:53 am 05:53 Mostly Cloudy with Fog 32 0 31 -0.6 96 96 NE 5 7 29.86 1011 0 0 0.00 0.00
6:53 am 06:53 Mostly Cloudy with Fog 32 0 31 -0.6 96 96 ENE 5 7 29.85 1011 0 0 0.00 0.00
7:53 am 07:53 Mostly Cloudy with Fog 32 0 32 0 100 100 ENE 3 6 29.87 1012 0 0 0.00 0.00
8:53 am 08:53 Mostly Cloudy with Fog 33 0.6 32 0 96 96 NE 6 9 29.86 1011 5 8 0.00 0.00
9:53 am 09:53 Mostly Cloudy with Fog 33 0.6 32 0 96 96 NE 6 9 29.86 1011 5 8 0.00 0.00
10:53 am 10:53 Mostly Cloudy with Fog 33 0.6 32 0 96 96 NE 9 15 29.85 1011 0 0 0.00 0.00
11:53 am 11:53 Mostly Cloudy with Fog 33 0.6 32 0 96 96 NE 7 11 29.84 1011 0 0 0.00 0.00
12:53 pm 12:53 Mostly Cloudy with Fog 33 0.6 32 0 96 96 NE 8 13 29.81 1009 0 0 0.00 0.00
1:53 pm 13:53 Mostly Cloudy with Fog 33 0.6 32 0 96 96 NNE 9 15 29.79 1009 0 0 0.00 0.03
2:50 pm 14:50 Cloudy with Light Snow 34 1 32 0 93 93 NNE 8 13 29.80 1009 1 2 0.00 0.00
2:53 pm 14:53 Cloudy with Light Snow 33 0.6 32 0 96 96 NNE 8 13 29.78 1008 1 2 0.00 0.03
3:51 pm 15:51 Cloudy with Mist and Fog 34 1 30 -1 87 87 NNE 10 17 29.80 1009 3 5 0.00 0.03
3:53 pm 15:53 Cloudy with Mist and Fog 33 0.6 31 -0.6 92 92 NNE 10 17 29.78 1008 3 5 0.00 0.03
4:12 pm 16:12 Cloudy with Light Snow 34 1 30 -1 87 87 NNE 9 15 29.80 1009 3 4 0.00 0.00
4:27 pm 16:27 Cloudy with Light Snow 32 0 31 -0.6 96 96 NNE 10 17 29.80 1009 1 2 0.01 0.25
4:36 pm 16:36 Cloudy with Light Snow 32 0 30 -1 93 93 NNE 10 17 29.80 1009 1 1 0.00 0.00
4:43 pm 16:43 Cloudy with Light Snow 32 0 31 -0.6 96 96 NNE 10 17 29.80 1009 1 2 0.01 0.25
4:53 pm 16:53 Cloudy with Light Snow 32 0 31 -0.6 96 96 NNE 12 19 29.79 1009 2 2 0.01 0.25
5:14 pm 17:14 Cloudy with Light Snow 33 0.6 31 -0.6 92 92 NNE 10 17 29.80 1009 2 3 0.00 0.03
5:28 pm 17:28 Cloudy with Mist and Fog 34 1 30 -1 87 87 NNE 10 17 29.80 1009 4 6 0.00 0.00
5:53 pm 17:53 Cloudy with Mist and Fog 33 0.6 31 -0.6 92 92 N 14 22 29.79 1009 6 10 0.00 0.03
6:53 pm 18:53 Cloudy 33 0.6 31 -0.6 92 92 NNE 14 22 29.80 1009 7 11 0.00 0.00
7:53 pm 19:53 Cloudy with Light Snow 32 0 31 -0.6 96 96 NNE 16 26 29.81 1009 3 5 0.00 0.03
8:01 pm 20:01 Cloudy with Light Snow 32 0 30 -1.1 92 92 NNE 14 22 29.85 1011 2 3 0.00 0.03
8:15 pm 20:15 Cloudy with Light Snow 32 0 30 -1.1 92 92 NNE 15 24 29.85 1011 4 6 0.01 0.25
8:53 pm 20:53 Cloudy with Light Snow 32 0 30 -1.1 92 92 NNE 14 22 29.81 1009 2 3 0.01 0.25
9:00 pm 21:00 Cloudy with Light Snow 32 0 30 -1 93 93 NNE 15 24 29.85 1011 2 3 0.00 0.00
9:23 pm 21:23 Cloudy with Light Snow 32 0 30 -1.1 92 92 N 14 22 29.85 1011 2 3 0.00 0.03
9:53 pm 21:53 Cloudy with Light Snow 32 0 30 -1.1 92 92 N 15 24 29.81 1010 2 2 0.00 0.03
10:30 pm 22:30 Cloudy with Light Snow 30 -1 28 -2 93 93 N 15 24 29.85 1011 1 1 0.00 0.00
10:53 pm 22:53 Cloudy with Light Snow 31 -0.6 29 -1.7 92 92 N 14 22 29.81 1010 1 1 0.01 0.25
11:05 pm 23:05 Cloudy with Light Snow 31 -0.6 29 -1.7 92 92 N 16 26 29.85 1011 1 1 0.00 0.03
11:11 pm 23:11 Cloudy with Light Snow 31 -0.6 29 -1.7 92 92 N 14 22 29.85 1011 1 2 0.00 0.03
11:24 pm 23:24 Cloudy with Light Snow 30 -1 28 -2 93 93 N 14 22 29.85 1011 1 2 0.00 0.00
11:39 pm 23:39 Cloudy with Light Snow 30 -1.1 28 -2.2 92 92 N 15 24 29.85 1011 1 1 0.00 0.03
11:53 pm 23:53 Cloudy with Light Snow 30 -1.1 28 -2.2 92 92 N 15 24 29.81 1009 1 2 0.01 0.25

Powered by AerisWeather